Waarnemingen

Advertentie
Mijn weer
Chievres, België (6432): temperatuur & dauwpunt: 18.05.2019 17:00:00 - 24.05.2019 17:00:00 (CEST)Chievres, België (6432): windsnelheid & windstoten: 18.05.2019 17:00:00 - 24.05.2019 17:00:00 (CEST)Chievres, België (6432): windrichting: 18.05.2019 17:00:00 - 24.05.2019 17:00:00 (CEST)Chievres, België (6432): luchtdruk: 18.05.2019 17:00:00 - 24.05.2019 17:00:00 (CEST)Chievres, België (6432): zicht: 18.05.2019 17:00:00 - 24.05.2019 17:00:00 (CEST)
Datum & Tijd tt [°C] td [°C] ff [km/u] ff [kn] fx [km/u] fx [kn] dd ppp [hPa] vv [km]
24.05.2019 17:00:00 20,4 12,7 14 8 - - NNW 1016,0 12
24.05.2019 16:00:00 20,8 6,5 11 6 25 14 NNW 1016,3 20
24.05.2019 15:00:00 20,2 9,0 11 6 22 12 WNW 1016,5 20
24.05.2019 14:00:00 19,7 7,6 14 8 - - WNW 1016,6 19
24.05.2019 13:00:00 19,3 10,2 11 6 22 12 W 1016,7 19
24.05.2019 12:00:00 18,7 5,0 7 4 18 10 W 1016,6 19
24.05.2019 11:00:00 17,7 8,5 11 6 - - WNW 1016,7 16
24.05.2019 10:00:00 17,1 7,4 4 2 14 8 N 1016,5 20
24.05.2019 09:00:00 15,7 6,4 7 4 11 6 ZW 1016,6 16
24.05.2019 08:00:00 14,1 10,2 4 2 - - N 1016,7 18
24.05.2019 07:00:00 11,0 9,1 7 4 7 4 Z 1016,6 16
24.05.2019 06:00:00 10,3 8,4 7 4 7 4 N 1016,2 17
24.05.2019 05:00:00 11,3 8,8 7 4 - - Z 1016,1 20
24.05.2019 04:00:00 10,8 8,0 7 4 7 4 ZZW 1016,1 20
24.05.2019 03:00:00 11,9 8,9 4 2 7 4 N 1016,1 20
24.05.2019 02:00:00 13,3 8,5 4 2 - - N 1016,2 20
24.05.2019 01:00:00 13,9 9,3 7 4 11 6 Z 1016,3 20
24.05.2019 00:00:00 15,1 9,4 7 4 11 6 Z 1016,7 20
23.05.2019 23:00:00 16,2 9,6 7 4 - - Z 1016,7 20
23.05.2019 22:00:00 17,1 9,8 4 2 7 4 N 1016,7 20
23.05.2019 21:00:00 19,2 10,0 4 2 4 2 N 1016,7 20
23.05.2019 20:00:00 21,2 6,8 4 2 - - N 1016,5 20
23.05.2019 19:00:00 21,7 7,1 4 2 11 6 N 1016,7 20
23.05.2019 18:00:00 22,2 8,7 4 2 14 8 N 1017,1 20
23.05.2019 17:00:00 21,8 8,7 4 2 - - N 1017,6 20
23.05.2019 16:00:00 21,7 8,0 7 4 14 8 W 1017,8 20
23.05.2019 15:00:00 21,5 6,9 7 4 22 12 ZW 1018,2 20
23.05.2019 14:00:00 20,5 6,4 11 6 - - W 1018,7 20
23.05.2019 13:00:00 19,5 8,3 11 6 18 10 W 1019,0 20
23.05.2019 12:00:00 19,7 7,9 11 6 18 10 WZW 1019,2 20
23.05.2019 11:00:00 17,7 10,1 11 6 - - W 1019,6 20
23.05.2019 10:00:00 16,8 8,9 7 4 14 8 ZW 1019,6 20
23.05.2019 09:00:00 15,1 9,9 7 4 11 6 Z 1019,6 17
23.05.2019 08:00:00 12,9 9,0 7 4 - - ZZW 1019,7 17
23.05.2019 07:00:00 9,2 6,6 4 2 11 6 N 1019,3 17
23.05.2019 06:00:00 8,6 5,5 7 4 11 6 ZZW 1019,2 20
23.05.2019 05:00:00 9,1 5,4 4 2 - - N 1019,3 20
23.05.2019 04:00:00 9,6 5,8 4 2 11 6 N 1019,7 20
23.05.2019 03:00:00 9,1 5,9 7 4 14 8 OZO 1019,8 20
23.05.2019 02:00:00 10,3 6,6 7 4 - - ZO 1020,2 20
23.05.2019 01:00:00 10,2 7,4 4 2 7 4 N 1020,5 20
23.05.2019 00:00:00 12,8 7,6 4 2 7 4 N 1020,7 20
22.05.2019 23:00:00 15,1 7,2 4 2 - - N 1020,7 20
22.05.2019 22:00:00 15,1 7,9 7 4 11 6 NO 1020,5 20
22.05.2019 21:00:00 16,2 8,1 7 4 14 8 NNO 1020,2 20
22.05.2019 20:00:00 16,8 7,7 11 6 - - NO 1020,2 20
22.05.2019 19:00:00 17,7 8,2 7 4 18 10 N 1020,0 20
22.05.2019 18:00:00 18,6 9,9 7 4 18 10 WNW 1020,1 19
22.05.2019 17:00:00 18,9 9,6 7 4 - - NNW 1020,3 20
22.05.2019 16:00:00 18,1 8,5 14 8 22 12 W 1020,6 20
22.05.2019 15:00:00 18,2 9,7 7 4 14 8 WZW 1020,7 15
22.05.2019 14:00:00 17,7 9,5 7 4 - - WNW 1020,7 19
22.05.2019 13:00:00 17,7 9,9 7 4 18 10 W 1020,8 17
22.05.2019 12:00:00 17,2 10,5 4 2 11 6 N 1021,1 10
22.05.2019 11:00:00 14,6 9,5 4 2 - - - 1021,2 7
22.05.2019 10:00:00 11,3 9,7 4 2 14 8 N 1021,1 5
22.05.2019 09:00:00 9,5 9,2 7 4 11 6 ZO 1021,1 1,7
22.05.2019 08:00:00 8,6 8,5 7 4 - - OZO 1021,1 0,1
22.05.2019 07:00:00 7,3 7,1 4 2 7 4 N 1020,8 0,1
22.05.2019 06:00:00 5,2 4,8 4 2 7 4 N 1020,8 0,3
22.05.2019 05:00:00 5,5 4,6 4 2 - - N 1020,7 1,3
22.05.2019 04:00:00 6,8 5,8 4 2 4 2 N 1020,5 4,3
22.05.2019 03:00:00 6,4 5,5 4 2 4 2 - 1020,2 4,3
22.05.2019 02:00:00 8,1 7,2 4 2 - - N 1020,2 5
22.05.2019 01:00:00 8,8 7,7 4 2 4 2 N 1020,1 6
22.05.2019 00:00:00 9,6 8,0 4 2 7 4 N 1020,1 9
21.05.2019 23:00:00 11,1 8,7 7 4 - - NNW 1020,0 10
21.05.2019 22:00:00 11,8 9,2 11 6 18 10 N 1019,6 9
21.05.2019 21:00:00 14,3 9,0 11 6 25 14 N 1019,1 16
21.05.2019 20:00:00 15,6 8,7 14 8 - - N 1018,5 18
21.05.2019 19:00:00 16,7 9,3 14 8 29 16 N 1018,2 18
21.05.2019 18:00:00 16,7 8,5 22 12 32 18 NNW 1018,0 20
21.05.2019 17:00:00 17,0 9,5 18 10 - - N 1017,7 20
21.05.2019 16:00:00 16,8 9,3 18 10 32 18 N 1017,7 20
21.05.2019 15:00:00 17,7 10,5 18 10 36 19 NNW 1017,2 18
21.05.2019 14:00:00 17,2 11,0 18 10 - - NNW 1017,2 19
21.05.2019 13:00:00 15,9 11,0 14 8 29 16 NW 1017,0 16
21.05.2019 12:00:00 13,8 10,8 14 8 22 12 WNW 1017,0 13
21.05.2019 11:00:00 12,1 9,3 14 8 - - NW 1017,0 13
21.05.2019 10:00:00 11,3 9,1 11 6 22 12 NW 1016,7 13
21.05.2019 09:00:00 10,3 8,5 14 8 29 16 NNW 1016,3 9
21.05.2019 08:00:00 10,0 8,6 18 10 - - NW 1015,7 8
21.05.2019 07:00:00 9,8 8,6 14 8 25 14 NNW 1015,2 8
21.05.2019 06:00:00 9,6 8,5 14 8 22 12 NW 1015,1 6
21.05.2019 05:00:00 9,3 8,7 7 4 - - WNW 1014,7 3,6
21.05.2019 04:00:00 9,1 8,5 7 4 14 8 N 1014,7 3,6
21.05.2019 03:00:00 9,6 8,5 11 6 22 12 NW 1014,3 5
21.05.2019 02:00:00 9,8 8,5 14 8 - - NW 1014,3 6
21.05.2019 01:00:00 10,0 9,3 11 6 18 10 WNW 1014,5 4,2
21.05.2019 00:00:00 11,0 10,1 11 6 18 10 NW 1014,2 3,9
20.05.2019 23:00:00 11,3 10,3 11 6 - - NW 1014,0 5
20.05.2019 22:00:00 11,5 10,4 11 6 22 12 NW 1013,5 5
20.05.2019 21:00:00 11,3 10,8 11 6 25 14 NW 1013,0 5
20.05.2019 20:00:00 11,6 10,5 18 10 - - NW 1012,6 8
20.05.2019 19:00:00 12,3 10,3 14 8 25 14 NW 1012,3 9
20.05.2019 18:00:00 12,6 10,4 14 8 22 12 NW 1012,1 8
20.05.2019 17:00:00 12,3 10,4 14 8 - - NNW 1012,1 8
20.05.2019 16:00:00 12,1 11,0 11 6 22 12 NW 1011,8 7
20.05.2019 15:00:00 11,8 10,9 11 6 18 10 NW 1011,8 6
20.05.2019 14:00:00 11,6 10,6 11 6 - - NNW 1011,7 9
20.05.2019 13:00:00 11,6 10,7 11 6 25 14 NNW 1011,2 10
20.05.2019 12:00:00 11,3 10,3 14 8 25 14 NW 1010,7 10
20.05.2019 11:00:00 11,1 10,6 14 8 - - NW 1010,3 7
20.05.2019 10:00:00 10,8 10,6 11 6 18 10 NW 1010,2 5
20.05.2019 09:00:00 10,6 10,5 11 6 14 8 NW 1010,1 2,3
20.05.2019 08:00:00 10,3 10,2 7 4 - - NW 1009,6 5
20.05.2019 07:00:00 10,3 10,3 11 6 18 10 NW 1009,2 3,1
20.05.2019 06:00:00 10,5 10,4 11 6 18 10 NNW 1009,1 3,3
20.05.2019 05:00:00 10,4 10,4 11 6 - - NNW 1008,7 2,5
20.05.2019 04:00:00 - - - - - - - - -
20.05.2019 03:00:00 10,5 10,5 14 8 22 12 NNW 1008,6 2,1
20.05.2019 02:00:00 10,6 10,6 11 6 - - NNW 1008,7 1,2
20.05.2019 01:00:00 10,8 10,7 11 6 22 12 NNW 1008,8 1,5
20.05.2019 00:00:00 11,0 10,7 14 8 25 14 NNW 1008,7 1,8
19.05.2019 23:00:00 11,6 10,5 14 8 - - NNW 1008,7 3,8
19.05.2019 22:00:00 12,3 10,3 11 6 18 10 NNW 1008,6 8
19.05.2019 21:00:00 13,0 10,9 14 8 22 12 NNW 1008,2 6
19.05.2019 20:00:00 13,3 11,1 18 10 - - NNW 1008,1 5
19.05.2019 19:00:00 14,3 11,2 18 10 29 16 NNW 1007,6 8
19.05.2019 18:00:00 14,3 11,9 14 8 29 16 NNW 1007,6 7
19.05.2019 17:00:00 14,6 11,7 22 12 - - NNW 1007,3 8
19.05.2019 16:00:00 15,1 12,7 22 12 29 16 NNW 1007,5 0,3
19.05.2019 15:00:00 14,1 12,5 14 8 25 14 NW 1007,7 5
19.05.2019 14:00:00 13,5 12,9 14 8 - - W 1007,7 3,1
19.05.2019 13:00:00 13,1 12,6 11 6 22 12 NW 1008,0 2,0
19.05.2019 12:00:00 13,4 12,7 14 8 25 14 NNW 1007,7 2,6
19.05.2019 11:00:00 13,0 12,8 14 8 - - NNW 1007,7 1,9
19.05.2019 10:00:00 12,2 12,0 7 4 18 10 NNO 1008,1 1,4
19.05.2019 09:00:00 11,9 11,3 11 6 18 10 N 1007,6 1,8
19.05.2019 08:00:00 11,6 10,8 7 4 - - N 1007,2 2,3
19.05.2019 07:00:00 11,6 10,6 7 4 7 4 N 1007,1 2,2
19.05.2019 06:00:00 11,5 10,3 4 2 7 4 N 1006,8 2,7
19.05.2019 05:00:00 11,8 10,0 4 2 - - N 1007,0 3,0
19.05.2019 04:00:00 11,6 9,9 4 2 7 4 N 1007,0 3,2
19.05.2019 03:00:00 12,1 9,6 4 2 7 4 N 1007,2 3,8
19.05.2019 02:00:00 12,1 9,8 4 2 - - N 1007,2 3,9
19.05.2019 01:00:00 13,3 10,0 4 2 11 6 N 1007,3 4,8
19.05.2019 00:00:00 14,1 10,4 11 6 14 8 NNO 1007,7 5
18.05.2019 23:00:00 14,8 11,2 11 6 - - NNO 1007,7 5
18.05.2019 22:00:00 15,4 11,5 7 4 11 6 N 1007,2 11
18.05.2019 21:00:00 17,7 11,6 4 2 7 4 N 1006,7 15
18.05.2019 20:00:00 17,7 12,1 4 2 - - N 1006,2 18
18.05.2019 19:00:00 18,7 11,1 14 8 18 10 O 1005,8 20
18.05.2019 18:00:00 21,0 10,2 4 2 7 4 N 1005,7 20
18.05.2019 17:00:00 19,3 10,5 7 4 - - NO 1005,8 20

tt = temperatuur
td = dauwpunt
ff = windsnelheid
fx = windstoten
dd = windrichting
ppp = luchtdruk
vv = zicht

Weerstations in de omgeving